Time,TemperatureF,DewpointF,PressureIn,WindDirection,WindDirectionDegrees,WindSpeedMPH,WindSpeedGustMPH,Humidity,HourlyPrecipIn,Conditions,Clouds,dailyrainin,SoftwareType,DateUTC
2013-06-05 00:32:00,64.0,6.0,-100.00,SW,230,15.0,19.0,10,0.00,,,-99.99,,2013-06-05 07:32:00,
2013-06-05 00:42:00,64.0,6.0,-100.00,SW,230,15.0,19.0,10,0.00,,,-99.99,,2013-06-05 07:42:00,
2013-06-05 00:52:00,64.0,8.0,-100.00,WSW,240,13.0,16.0,11,0.00,,,-99.99,,2013-06-05 07:52:00,
2013-06-05 01:02:00,64.0,8.0,-100.00,WSW,240,13.0,16.0,11,0.00,,,-99.99,,2013-06-05 08:02:00,
2013-06-05 01:12:00,64.0,8.0,-100.00,WSW,240,13.0,16.0,11,0.00,,,-99.99,,2013-06-05 08:12:00,
2013-06-05 01:22:00,64.0,8.0,-100.00,WSW,240,17.0,20.0,11,0.00,,,-99.99,,2013-06-05 08:22:00,
2013-06-05 01:32:00,64.0,8.0,-100.00,WSW,240,17.0,20.0,11,0.00,,,-99.99,,2013-06-05 08:32:00,
2013-06-05 01:42:00,64.0,8.0,-100.00,WSW,240,17.0,20.0,11,0.00,,,-99.99,,2013-06-05 08:42:00,
2013-06-05 02:22:00,64.0,8.0,-100.00,WSW,250,19.0,20.0,11,0.00,,,-99.99,,2013-06-05 09:22:00,
2013-06-05 02:32:00,64.0,8.0,-100.00,WSW,250,19.0,20.0,11,0.00,,,-99.99,,2013-06-05 09:32:00,
2013-06-05 02:52:00,63.0,8.0,-100.00,WSW,250,17.0,20.0,11,0.00,,,-99.99,,2013-06-05 09:52:00,
2013-06-05 03:22:00,63.0,8.0,-100.00,WSW,250,17.0,20.0,11,0.00,,,-99.99,,2013-06-05 10:22:00,
2013-06-05 03:33:00,63.0,8.0,-100.00,WSW,250,17.0,20.0,11,0.00,,,-99.99,,2013-06-05 10:33:00,
2013-06-05 03:42:00,63.0,8.0,-100.00,WSW,250,17.0,20.0,11,0.00,,,-99.99,,2013-06-05 10:42:00,
2013-06-05 03:52:00,64.0,10.0,-100.00,WSW,250,19.0,21.0,12,0.00,,,-99.99,,2013-06-05 10:52:00,
2013-06-05 04:22:00,64.0,10.0,-100.00,WSW,250,19.0,21.0,12,0.00,,,-99.99,,2013-06-05 11:22:00,
2013-06-05 04:32:00,64.0,10.0,-100.00,WSW,250,19.0,21.0,12,0.00,,,-99.99,,2013-06-05 11:32:00,
2013-06-05 04:42:00,64.0,10.0,-100.00,WSW,250,19.0,21.0,12,0.00,,,-99.99,,2013-06-05 11:42:00,
2013-06-05 04:52:00,65.0,7.0,-100.00,West,260,15.0,17.0,10,0.00,,,-99.99,,2013-06-05 11:52:00,
2013-06-05 05:22:00,65.0,7.0,-100.00,West,260,15.0,17.0,10,0.00,,,-99.99,,2013-06-05 12:22:00,
2013-06-05 05:32:00,65.0,7.0,-100.00,West,260,15.0,17.0,10,0.00,,,-99.99,,2013-06-05 12:32:00,
2013-06-05 05:43:00,65.0,7.0,-100.00,West,260,15.0,17.0,10,0.00,,,-99.99,,2013-06-05 12:43:00,
2013-06-05 06:42:00,68.0,5.0,-100.00,West,270,5.0,16.0,8,0.00,,,-99.99,,2013-06-05 13:42:00,
2013-06-05 06:52:00,68.0,5.0,-100.00,West,270,5.0,16.0,8,0.00,,,-99.99,,2013-06-05 13:52:00,
2013-06-05 07:02:00,68.0,5.0,-100.00,West,270,5.0,16.0,8,0.00,,,-99.99,,2013-06-05 14:02:00,
2013-06-05 07:22:00,69.0,5.0,-100.00,North,360,2.0,3.0,8,0.00,,,-99.99,,2013-06-05 14:22:00,
2013-06-05 07:32:00,69.0,5.0,-100.00,North,360,2.0,3.0,8,0.00,,,-99.99,,2013-06-05 14:32:00,
2013-06-05 07:52:00,72.0,7.0,-100.00,NE,40,7.0,8.0,8,0.00,,,-99.99,,2013-06-05 14:52:00,
2013-06-05 08:22:00,72.0,7.0,-100.00,NE,40,7.0,8.0,8,0.00,,,-99.99,,2013-06-05 15:22:00,
2013-06-05 08:33:00,72.0,7.0,-100.00,NE,40,7.0,8.0,8,0.00,,,-99.99,,2013-06-05 15:33:00,
2013-06-05 08:42:00,72.0,7.0,-100.00,NE,40,7.0,8.0,8,0.00,,,-99.99,,2013-06-05 15:42:00,
2013-06-05 08:52:00,71.0,7.0,-100.00,NE,50,5.0,10.0,8,0.00,,,-99.99,,2013-06-05 15:52:00,
2013-06-05 09:22:00,71.0,7.0,-100.00,NE,50,5.0,10.0,8,0.00,,,-99.99,,2013-06-05 16:22:00,
2013-06-05 09:32:00,71.0,7.0,-100.00,NE,50,5.0,10.0,8,0.00,,,-99.99,,2013-06-05 16:32:00,
2013-06-05 09:42:00,71.0,7.0,-100.00,NE,50,5.0,10.0,8,0.00,,,-99.99,,2013-06-05 16:42:00,
2013-06-05 09:52:00,71.0,9.0,-100.00,NE,50,6.0,11.0,9,0.00,,,-99.99,,2013-06-05 16:52:00,
2013-06-05 10:22:00,71.0,9.0,-100.00,NE,50,6.0,11.0,9,0.00,,,-99.99,,2013-06-05 17:22:00,
2013-06-05 10:32:00,71.0,9.0,-100.00,NE,50,6.0,11.0,9,0.00,,,-99.99,,2013-06-05 17:32:00,
2013-06-05 10:42:00,71.0,9.0,-100.00,NE,50,6.0,11.0,9,0.00,,,-99.99,,2013-06-05 17:42:00,
2013-06-05 10:52:00,72.0,12.0,-100.00,NE,40,6.0,14.0,10,0.00,,,-99.99,,2013-06-05 17:52:00,
2013-06-05 11:22:00,72.0,12.0,-100.00,NE,40,6.0,14.0,10,0.00,,,-99.99,,2013-06-05 18:22:00,
2013-06-05 11:32:00,72.0,12.0,-100.00,NE,40,6.0,14.0,10,0.00,,,-99.99,,2013-06-05 18:32:00,
2013-06-05 11:42:00,72.0,12.0,-100.00,NE,40,6.0,14.0,10,0.00,,,-99.99,,2013-06-05 18:42:00,
2013-06-05 11:52:00,75.0,15.0,-100.00,NNE,20,3.0,16.0,10,0.00,,,-99.99,,2013-06-05 18:52:00,
2013-06-05 12:23:00,75.0,15.0,-100.00,NNE,20,3.0,16.0,10,0.00,,,-99.99,,2013-06-05 19:23:00,
2013-06-05 12:32:00,75.0,15.0,-100.00,NNE,20,3.0,16.0,10,0.00,,,-99.99,,2013-06-05 19:32:00,
2013-06-05 12:42:00,75.0,15.0,-100.00,NNE,20,3.0,16.0,10,0.00,,,-99.99,,2013-06-05 19:42:00,
2013-06-05 12:52:00,78.0,15.0,-100.00,NNE,30,5.0,11.0,9,0.00,,,-99.99,,2013-06-05 19:52:00,
2013-06-05 13:22:00,78.0,15.0,-100.00,NNE,30,5.0,11.0,9,0.00,,,-99.99,,2013-06-05 20:22:00,
2013-06-05 13:32:00,78.0,15.0,-100.00,NNE,30,5.0,11.0,9,0.00,,,-99.99,,2013-06-05 20:32:00,
2013-06-05 13:42:00,78.0,15.0,-100.00,NNE,30,5.0,11.0,9,0.00,,,-99.99,,2013-06-05 20:42:00,
2013-06-05 13:52:00,78.0,19.0,-100.00,ENE,60,2.0,12.0,11,0.00,,,-99.99,,2013-06-05 20:52:00,
2013-06-05 14:22:00,78.0,19.0,-100.00,ENE,60,2.0,12.0,11,0.00,,,-99.99,,2013-06-05 21:22:00,
2013-06-05 14:33:00,78.0,19.0,-100.00,ENE,60,2.0,12.0,11,0.00,,,-99.99,,2013-06-05 21:33:00,
2013-06-05 14:52:00,79.0,18.0,-100.00,NE,50,3.0,7.0,10,0.00,,,-99.99,,2013-06-05 21:52:00,
2013-06-05 15:22:00,79.0,18.0,-100.00,NE,50,3.0,7.0,10,0.00,,,-99.99,,2013-06-05 22:22:00,
2013-06-05 15:32:00,79.0,18.0,-100.00,NE,50,3.0,7.0,10,0.00,,,-99.99,,2013-06-05 22:32:00,
2013-06-05 15:42:00,79.0,18.0,-100.00,NE,50,3.0,7.0,10,0.00,,,-99.99,,2013-06-05 22:42:00,
2013-06-05 15:52:00,79.0,20.0,-100.00,North,350,3.0,9.0,11,0.00,,,-99.99,,2013-06-05 22:52:00,
2013-06-05 16:22:00,79.0,20.0,-100.00,North,350,3.0,9.0,11,0.00,,,-99.99,,2013-06-05 23:22:00,
2013-06-05 16:32:00,79.0,20.0,-100.00,North,350,3.0,9.0,11,0.00,,,-99.99,,2013-06-05 23:32:00,
2013-06-05 16:42:00,79.0,20.0,-100.00,North,350,3.0,9.0,11,0.00,,,-99.99,,2013-06-05 23:42:00,
2013-06-05 17:22:00,79.0,18.0,-100.00,North,350,6.0,10.0,10,0.00,,,-99.99,,2013-06-06 00:22:00,
2013-06-05 17:32:00,79.0,18.0,-100.00,North,350,6.0,10.0,10,0.00,,,-99.99,,2013-06-06 00:32:00,
2013-06-05 17:52:00,71.0,39.0,-100.00,SW,230,4.0,11.0,31,0.00,,,-99.99,,2013-06-06 00:52:00,
2013-06-05 18:22:00,71.0,39.0,-100.00,SW,230,4.0,11.0,31,0.00,,,-99.99,,2013-06-06 01:22:00,
2013-06-05 18:32:00,71.0,39.0,-100.00,SW,230,4.0,11.0,31,0.00,,,-99.99,,2013-06-06 01:32:00,
2013-06-05 18:42:00,71.0,39.0,-100.00,SW,230,4.0,11.0,31,0.00,,,-99.99,,2013-06-06 01:42:00,
2013-06-05 18:52:00,70.0,28.0,-100.00,SW,230,9.0,12.0,21,0.00,,,-99.99,,2013-06-06 01:52:00,
2013-06-05 19:22:00,70.0,28.0,-100.00,SW,230,9.0,12.0,21,0.00,,,-99.99,,2013-06-06 02:22:00,
2013-06-05 19:32:00,70.0,28.0,-100.00,SW,230,9.0,12.0,21,0.00,,,-99.99,,2013-06-06 02:32:00,
2013-06-05 19:42:00,70.0,28.0,-100.00,SW,230,9.0,12.0,21,0.00,,,-99.99,,2013-06-06 02:42:00,
2013-06-05 20:22:00,68.0,19.0,-100.00,SW,230,11.0,12.0,15,0.00,,,-99.99,,2013-06-06 03:22:00,
2013-06-05 20:33:00,68.0,19.0,-100.00,SW,230,11.0,12.0,15,0.00,,,-99.99,,2013-06-06 03:33:00,
2013-06-05 21:23:00,67.0,15.0,-100.00,SW,220,12.0,14.0,13,0.00,,,-99.99,,2013-06-06 04:23:00,
2013-06-05 21:33:00,67.0,15.0,-100.00,SW,220,12.0,14.0,13,0.00,,,-99.99,,2013-06-06 04:33:00,
2013-06-05 21:52:00,68.0,17.0,-100.00,SW,230,13.0,15.0,14,0.00,,,-99.99,,2013-06-06 04:52:00,
2013-06-05 22:22:00,68.0,17.0,-100.00,SW,230,13.0,15.0,14,0.00,,,-99.99,,2013-06-06 05:22:00,
2013-06-05 22:32:00,68.0,17.0,-100.00,SW,230,13.0,15.0,14,0.00,,,-99.99,,2013-06-06 05:32:00,
2013-06-05 22:42:00,68.0,17.0,-100.00,SW,230,13.0,15.0,14,0.00,,,-99.99,,2013-06-06 05:42:00,
2013-06-05 22:52:00,67.0,9.0,-100.00,SW,230,16.0,16.0,10,0.00,,,-99.99,,2013-06-06 05:52:00,
2013-06-05 23:22:00,67.0,9.0,-100.00,SW,230,16.0,16.0,10,0.00,,,-99.99,,2013-06-06 06:22:00,
2013-06-05 23:32:00,67.0,9.0,-100.00,SW,230,16.0,16.0,10,0.00,,,-99.99,,2013-06-06 06:32:00,
2013-06-05 23:42:00,67.0,9.0,-100.00,SW,230,16.0,16.0,10,0.00,,,-99.99,,2013-06-06 06:42:00,
2013-06-05 23:52:00,66.0,6.0,-100.00,WSW,240,17.0,22.0,9,0.00,,,-99.99,,2013-06-06 06:52:00,